{"data":{"norad_id":54188,"intl_designator":"2022-141AH","name":"STARLINK-5238","alt_names":[],"object_type":"PAYLOAD","status":"ACTIVE","operator":null,"country":"US","launch_date":"2022-10-28","launch_site_code":"AFWTR","launch_vehicle":null,"mission":null,"orbit_class":"UNKNOWN","rcs_meters":null,"size_class":null,"mass_kg":null,"dimensions":null,"purposes":["comms"],"wikipedia_slug":null,"has_3d_model":false,"image_url":null,"decayed_at":null,"tle_current":{"epoch":"2026-05-25T01:13:54.544800Z","epoch_age_seconds":70939,"freshness":"FRESH","line1":"1 54188U 22141AH  26145.05132575  .00000045  00000+0  20941-4 0  9990","line2":"2 54188  53.2128  11.4801 0001313  79.6441 280.4699 15.08837462197529","mean_motion":15.08837462,"eccentricity":0.0001313,"inclination_deg":53.2128,"raan_deg":11.4801,"arg_perigee_deg":79.6441,"mean_anomaly_deg":280.4699,"bstar":2.0941e-5,"rev_number":19752,"period_min":95.437715212296,"perigee_km":538.84282791198,"apogee_km":540.65946533929,"semimajor_km":6917.8881466256,"source":"CELESTRAK","updated_at":"2026-05-25T13:38:17.682584Z"}}}